Flag for Japan Weather past 2 weeks in Yokohama, Japan

Now
84 °F

Passing clouds.


Feels Like: 92 °F
Forecast: 82 / 92 °F
Wind: 3 mph from Southwest

Location: Tokyo International Airport

Current Time: Aug 2, 2015 at 7:21:25 AM

Latest Report: Aug 2, 2015 at 6:30 AM


Visibility: N/A

Pressure: 29.89 "Hg

Humidity: 74%

Dew point: 75 °F

Location of YokohamaLocation

Historic Weather in Yokohama — Graph

°F

Yokohama temperature yesterday

Maximum temperature yesterday: 95 °F (at 2:30 PM)
Minimum temperature yesterday: 81 °F (at 2:30 AM)
Average temperature yesterday: 86 °F

Past Weeks' High & Low Weather Summary

 TemperatureHumidityPressure
High95 °F (Jul 26, 2:30 PM)94% (Jul 23, 9:00 AM)29.95 "Hg (Jul 23, 9:00 AM)
Low77 °F (Jul 23, 10:30 PM)52% (Jul 21, 1:30 PM)29.65 "Hg (Jul 27, 4:30 PM)
Average84 °F77%29.80 "Hg
* Reported Jul 18 5:00 AM — Aug 2 5:30 AM, Yokohama, Weather by CustomWeather, © 2015

Note: Actual official high and low records may vary slightly from our data, if they occured in-between our weather recording intervals... More about our weather records

Advertising

Yokohama weather history for previous 24 hours

 ConditionsComfort  
Time TempWeatherWind HumidityBarometerVisibility
5:30 AM
Sun, Aug 2
82 °FPassing clouds.5 mph79%29.86 "Hg6 mi
5:00 AM82 °FPassing clouds.3 mph84%29.86 "Hg4 mi
4:30 AM81 °FPassing clouds.2 mph89%29.86 "Hg5 mi
4:00 AM82 °FPassing clouds.2 mph84%29.86 "Hg5 mi
3:30 AM82 °FClear.3 mph84%29.86 "Hg4 mi
3:00 AM82 °FClear.6 mph84%29.86 "Hg5 mi
2:30 AM82 °FClear.6 mph84%29.83 "Hg5 mi
2:00 AM82 °FClear.8 mph84%29.83 "Hg5 mi
1:30 AM82 °FClear.9 mph89%29.83 "Hg6 mi
1:00 AM82 °FPassing clouds.9 mph84%29.83 "Hg5 mi
12:00 AM84 °FPassing clouds.10 mph84%29.83 "Hg5 mi
11:30 PM
Sat, Aug 1
84 °FPassing clouds.10 mph84%29.86 "Hg4 mi
11:00 PM82 °FPassing clouds.10 mph89%29.86 "Hg4 mi
10:30 PM84 °FPassing clouds.13 mph84%29.83 "Hg5 mi
10:00 PM82 °FPassing clouds.16 mph89%29.83 "Hg4 mi
9:30 PM82 °FPassing clouds.12 mph89%29.83 "Hg4 mi
9:00 PM84 °FPassing clouds.14 mph84%29.86 "Hg4 mi
8:30 PM84 °FPassing clouds.14 mph84%29.86 "Hg4 mi
8:00 PM84 °FPassing clouds.14 mph89%29.83 "Hg4 mi
7:30 PM84 °FPassing clouds.13 mph84%29.83 "Hg5 mi
7:00 PM86 °FPassing clouds.13 mph79%29.83 "Hg4 mi
6:30 PM84 °FPartly sunny.15 mph84%29.80 "Hg5 mi
6:00 PM86 °FPartly sunny.17 mph79%29.80 "Hg6 mi
5:30 PM88 °FPartly sunny.15 mph70%29.80 "HgN/A
5:00 PM90 °FPartly sunny.17 mph67%29.80 "HgN/A
4:30 PM90 °FPassing clouds.17 mph67%29.80 "HgN/A
4:00 PM91 °FPassing clouds.18 mph67%29.80 "HgN/A
3:30 PM91 °FPassing clouds.18 mph67%29.80 "HgN/A
3:00 PM93 °FPassing clouds.18 mph63%29.80 "HgN/A
2:30 PM95 °FPassing clouds.17 mph60%29.80 "HgN/A
2:00 PM93 °FPassing clouds.15 mph59%29.80 "HgN/A
1:30 PM93 °FPassing clouds.14 mph59%29.80 "Hg6 mi
1:00 PM93 °FPassing clouds.13 mph63%29.83 "Hg6 mi
12:30 PM91 °FPassing clouds.10 mph67%29.83 "Hg5 mi
12:00 PM90 °FPassing clouds.12 mph71%29.83 "Hg4 mi
11:30 AM90 °FPassing clouds.10 mph71%29.83 "Hg4 mi
11:00 AM90 °FFog.10 mph71%29.83 "Hg3 mi
10:30 AM88 °FFog.10 mph75%29.83 "Hg3 mi
10:00 AM88 °FFog.10 mph79%29.83 "Hg3 mi
9:30 AM88 °FFog.10 mph75%29.83 "Hg3 mi
9:00 AM86 °FFog.10 mph84%29.83 "Hg2 mi
8:30 AM86 °FFog.12 mph84%29.83 "Hg2 mi
8:00 AM86 °FFog.9 mph79%29.83 "Hg2 mi
7:30 AM84 °FFog.7 mph84%29.83 "Hg2 mi
7:00 AM84 °FFog.7 mph84%29.83 "Hg2 mi
Weather by CustomWeather, © 2015

See weather overviewHow to use our weather pages